Der Flugplatz Krefeld-Egelsberg
  • ICAO-Code: EDLK
  • Koordinaten: N 51° 23,10'    E 06° 35,26'
  • Höhe ü. NN: 141 ft / 43 m
  • Platzfrequenz: 120.675 MHz - Krefeld Info
  • Landebahn: 06 - 24
  • Abmessungen: 640 x 30m
  • Belag: Gras
  • Tragfähigkeit: 2000 kg MTW; HEL 5700 kg MTW
  • Tankstelle: Nein
  • Betriebszeit: PPR
  • PPR-Request: Tel: 02151/ 560133, 368400
  • Landegebühr: Private Flüge 5 €, für gewerbliche Flüge wird eine gesonderte Gebühr erhoben

 


EDLK

Wetterinformation

[Quelle: ADDS]
METAR
EDDL 221250Z 31008KT 250V360 9999 3000NE SHRA SCT012 BKN016CB 11/09 Q1011 BECMG NSW =
TAF
EDDL 221100Z 2212/2318 22015KT 9999 BKN030 TEMPO 2212/2218 SHRA BKN013 BKN020CB TEMPO 2223/2302 RA BKN014 BECMG 2312/2315 28007KT =
Lade Webcam-Bild